Regional Weather Roundup
Issued by NWS Goodland, KS

Home | Current Version | Previous Version | Graphics & Text | Print | Product List | Glossary On
Versions: 1 2 3 4 5 6 7 8 9 10 11 12 13 14 15 16 17 18 19 20 21 22 23 24 25 26 27 28 29 30 31 32 33 34 35 36 37 38 39 40 41 42 43 44 45 46 47 48 49 50
130
ASUS43 KGLD 252008
RWRGLD

GOODLAND FORECAST AREA HOURLY WEATHER ROUNDUP
NATIONAL WEATHER SERVICE GOODLAND KS
200 PM MDT SAT MAR 25 2017

...OFFICIAL OBSERVATIONS...

CITY           SKY/WX    TMP DP  RH WIND       PRES   REMARKS
GOODLAND KS    SUNNY     56  27  32 CALM      29.96F
HILL CITY KS   PTSUNNY   53  42  66 N8        29.96F
IMPERIAL NEB   SUNNY     58  25  28 CALM      29.95F
MCCOOK NEB     SUNNY     60  31  33 CALM      29.93F
AKRON CO       CLOUDY    59  29  31 SE7       29.94F
BURLINGTON CO  SUNNY     56  30  37 VRB5      29.97F
LIMON CO       CLOUDY    60  28  29 SE12      29.95F
$$

...UNOFFICIAL OBSERVATIONS...

CITY           SKY/WX    TMP DP  RH WIND       PRES   REMARKS
LENORA KS        N/A     52  32  46 CALM        N/A
NORTON KS      MOSUNNY   54  39  58 N7        29.93F
SHARON SPRINGS   N/A     60  29  30 NW5         N/A
TRENTON NEB      N/A     59  32  36 N5          N/A
YUMA CO        FAIR      55  32  41 E8        29.94F
$$




USA.gov is the U.S. government's official web portal to all federal, state and local government web resources and services.